TimeEDT,TemperatureF,Dew PointF,Humidity,Sea Level PressureIn,VisibilityMPH,Wind Direction,Wind SpeedMPH,Gust SpeedMPH,PrecipitationIn,Events,Conditions,WindDirDegrees,DateUTC
12:57 AM,1.4,1.4,100,-9999,0.0,NW,58.7,67.9,N/A,Fog-Snow,Light Snow,310,2013-03-23 04:57:00
1:55 AM,1.4,1.4,100,-9999,0.0,NW,62.1,70.2,N/A,Fog-Snow,Light Snow,310,2013-03-23 05:55:00
2:47 AM,1.4,1.4,100,-9999,0.0,NW,72.5,-,N/A,Fog-Snow,Light Snow,320,2013-03-23 06:47:00
3:52 AM,1.4,1.4,100,-9999,0.0,NW,74.8,79.4,N/A,Fog-Snow,Light Snow,310,2013-03-23 07:52:00
4:55 AM,1.4,1.4,100,-9999,0.0,NW,78.3,87.5,N/A,Fog-Snow,Light Freezing Fog,310,2013-03-23 08:55:00
5:52 AM,3.2,3.2,100,-9999,0.0,NW,74.8,92.1,N/A,Fog-Snow,Light Snow,310,2013-03-23 09:52:00
6:50 AM,3.2,3.2,100,-9999,0.0,NW,86.3,94.4,N/A,Fog-Snow,Light Snow,310,2013-03-23 10:50:00
7:55 AM,3.2,3.2,100,-9999,0.0,NW,89.8,95.5,N/A,Fog-Snow,Light Snow,320,2013-03-23 11:55:00
8:51 AM,5.0,5.0,100,-9999,0.0,NW,95.5,101.3,N/A,Fog-Snow,Light Snow,320,2013-03-23 12:51:00
9:54 AM,5.0,5.0,100,-9999,0.0,NW,94.4,100.1,N/A,Fog-Snow,Light Snow,310,2013-03-23 13:54:00
10:52 AM,6.8,6.8,100,-9999,0.0,NW,85.2,96.7,N/A,Fog-Snow,Light Snow,310,2013-03-23 14:52:00
11:51 AM,6.8,6.8,100,-9999,0.0,NW,89.8,94.4,N/A,Fog-Snow,Light Snow,310,2013-03-23 15:51:00
12:51 PM,6.8,6.8,100,-9999,0.0,NW,78.3,90.9,N/A,Fog-Snow,Light Snow,310,2013-03-23 16:51:00
1:52 PM,8.6,8.6,100,-9999,0.0,NW,73.6,87.5,N/A,Fog-Snow,Light Snow,310,2013-03-23 17:52:00
2:52 PM,6.8,6.8,100,-9999,0.0,NW,79.4,92.1,N/A,Fog-Snow,Light Snow,310,2013-03-23 18:52:00
3:53 PM,6.8,6.8,100,-9999,0.0,NW,77.1,88.6,N/A,Fog-Snow,Light Snow,310,2013-03-23 19:53:00
4:50 PM,6.8,6.8,100,-9999,0.0,NW,78.3,89.8,N/A,Fog-Snow,Light Snow,310,2013-03-23 20:50:00
5:50 PM,8.6,8.6,100,-9999,0.0,NW,78.3,89.8,N/A,Fog-Snow,Light Snow,310,2013-03-23 21:50:00
6:55 PM,8.6,8.6,100,-9999,0.0,NW,84.0,94.4,N/A,Fog-Snow,Light Snow,310,2013-03-23 22:55:00
7:51 PM,6.8,6.8,100,-9999,0.0,NW,81.7,94.4,N/A,Fog-Snow,Light Snow,310,2013-03-23 23:51:00
8:49 PM,6.8,6.8,100,-9999,0.0,NW,82.9,90.9,N/A,Fog-Snow,Light Snow,320,2013-03-24 00:49:00
9:55 PM,8.6,8.6,100,-9999,0.0,NW,71.3,82.9,N/A,Fog-Snow,Light Snow,320,2013-03-24 01:55:00
10:54 PM,6.8,6.8,100,-9999,0.0,NW,73.6,80.6,N/A,Fog-Snow,Light Snow,310,2013-03-24 02:54:00
11:51 PM,6.8,6.8,100,-9999,0.0,NW,65.6,76.0,N/A,Fog-Snow,Light Snow,320,2013-03-24 03:51:00